User: anonymous   Login
Location: San Francisco
(37.7750°N, 122.4180°W)
Time: 16:17:38
(UTC-08:00)
Language:

GP-B - Orbit

View from above orbital plane
View from above orbital plane
View from above satellite
View from above satellite

Ground track
Ground track

The orbit data is extracted from the following two-line orbital elements,

1 28230U 04014A   16337.54886093  .00000177  00000-0  22009-4 0  9999
2 28230  89.8525 125.6977 0003062 102.8011 257.3553 14.78491783680045
Epoch (UTC): 02 December 2016 13:10:21
Eccentricity: 0.0003062
inclination: 89.8525°
perigee height: 632 km
apogee height: 636 km
right ascension of ascending node: 125.6977°
argument of perigee: 102.8011°
revolutions per day: 14.78491783
mean anomaly at epoch: 257.3553°
orbit number at epoch: 68004

The dashed part of the orbit path shows where the satellite is in the earth's shadow,  

DLR